Stations météo

Publicité
Montpellier, France (7643): Température de l'air & dewpoint: 26.10.2020 00:00:00 - 01.11.2020 00:00:00 (CET)Montpellier, France (7643): Température de l'air 5cm: 26.10.2020 00:00:00 - 01.11.2020 00:00:00 (CET)Montpellier, France (7643): Température de l'air -20cm & Température de l'air -100cm: 26.10.2020 00:00:00 - 01.11.2020 00:00:00 (CET)Montpellier, France (7643): Vitesse du vent & gusts: 26.10.2020 00:00:00 - 01.11.2020 00:00:00 (CET)Montpellier, France (7643): Direction du vent: 26.10.2020 00:00:00 - 01.11.2020 00:00:00 (CET)Montpellier, France (7643): reduced air pressure: 26.10.2020 00:00:00 - 01.11.2020 00:00:00 (CET)Montpellier, France (7643): visibility: 26.10.2020 00:00:00 - 01.11.2020 00:00:00 (CET)Montpellier, France (7643): Ensoleillement: 26.10.2020 00:00:00 - 01.11.2020 00:00:00 (CET)Montpellier, France (7643): Quantités de précipitations: 26.10.2020 00:00:00 - 01.11.2020 00:00:00 (CET)
Date & Time tt [°C] td [°C] tt 5cm [°C] tt -20cm [°C] tt -100cm [°C] ff [km/h] ff [knt] fx [km/h] fx [knt] dd ppp [hPa] vv [km] sd [min] rr [mm]
01.11.2020 00:00:00 9,0 8,5 5,1 15,0 18,2 8 4 12 6 N 1023,8 2,8 0 0,0
31.10.2020 23:00:00 10,5 9,9 4,9 15,1 18,2 11 6 12 6 NNW 1024,4 2,8 0 0,0
31.10.2020 22:00:00 9,9 9,1 6,7 15,3 18,1 8 5 13 7 NNE 1024,2 3,6 0 0,0
31.10.2020 21:00:00 10,7 8,8 6,4 15,5 18,2 9 5 12 6 NW 1024,1 11 0 0,0
31.10.2020 20:00:00 12,8 11,2 7,2 15,6 18,1 3 2 7 4 NNE 1024,2 18 0 0,0
31.10.2020 19:00:00 15,4 12,0 12,2 15,7 18,1 5 3 10 5 W 1024,1 26 0 0,0
31.10.2020 18:00:00 16,1 12,5 15,5 15,7 18,2 3 1 16 8 S 1023,6 32 0 0,0
31.10.2020 17:00:00 16,3 12,5 16,3 15,6 18,1 5 3 14 8 SSE 1023,6 32 0 0,0
31.10.2020 16:00:00 16,8 13,1 17,7 15,4 18,2 5 3 9 5 SSE 1023,7 23 0 0,0
31.10.2020 15:00:00 17,4 13,1 18,6 15,3 18,2 6 4 10 5 E 1023,6 31 0 0,0
31.10.2020 14:00:00 17,0 13,3 18,2 15,0 18,2 5 3 10 5 ENE 1024,3 32 0 0,0
31.10.2020 13:00:00 16,7 13,6 18,7 14,6 18,2 3 2 10 5 NNE 1024,8 19 0 0,0
31.10.2020 12:00:00 15,5 14,0 16,6 14,3 18,2 5 3 16 9 ENE 1025,3 10 0 0,0
31.10.2020 11:00:00 14,4 13,1 14,8 14,1 18,2 9 5 19 10 NE 1025,7 9 0 0,0
31.10.2020 10:00:00 12,9 12,4 12,8 14,0 18,2 11 6 19 10 NNE 1025,6 4,1 1 0,0
31.10.2020 09:00:00 11,7 10,3 9,5 14,0 18,2 15 8 22 12 NNE 1025,6 22 58 0,0
31.10.2020 08:00:00 9,1 8,8 4,8 14,1 18,2 9 5 14 7 N 1025,2 26 19 0,0
31.10.2020 07:00:00 8,3 8,0 3,4 14,2 18,2 9 5 12 7 NE 1024,8 34 0 0,0
31.10.2020 06:00:00 8,6 8,2 3,9 14,4 18,2 9 5 12 6 N 1024,6 41 0 0,0
31.10.2020 05:00:00 8,9 8,3 4,1 14,5 18,2 4 2 10 5 N 1024,5 31 0 0,2
31.10.2020 04:00:00 8,3 7,5 3,7 14,7 18,2 6 4 9 5 N 1024,5 19 0 0,0
31.10.2020 03:00:00 9,0 8,2 5,0 14,8 18,2 5 3 12 6 NNE 1024,9 23 0 0,0
31.10.2020 02:00:00 9,7 8,9 6,0 15,0 18,2 7 4 9 5 N 1024,9 19 0 0,0
31.10.2020 01:00:00 9,1 8,0 4,8 15,2 18,2 8 5 9 5 N 1025,1 16 0 0,0
31.10.2020 00:00:00 10,5 9,6 5,0 15,4 18,2 4 2 7 4 N 1025,0 19 0 0,0
30.10.2020 23:00:00 10,6 9,4 8,5 15,5 18,2 9 5 10 5 N 1025,0 18 0 0,0
30.10.2020 22:00:00 11,9 10,5 7,3 15,8 18,2 4 2 14 7 N 1025,0 20 0 0,0
30.10.2020 21:00:00 11,5 9,9 6,9 15,9 18,2 7 4 10 5 NE 1024,8 38 0 0,0
30.10.2020 20:00:00 12,8 10,5 6,7 16,2 18,2 2 1 5 3 W 1024,4 43 0 0,0
30.10.2020 19:00:00 14,5 11,8 8,5 16,3 18,2 3 2 16 9 WSW 1024,2 56 0 0,0
30.10.2020 18:00:00 16,3 11,9 14,3 16,5 18,2 13 7 19 10 SW 1023,7 30 14 0,0
30.10.2020 17:00:00 18,2 12,6 18,3 16,5 18,2 11 6 23 12 SSW 1023,5 53 57 0,0
30.10.2020 16:00:00 19,6 11,6 20,6 16,4 18,2 16 9 24 13 SW 1023,4 50 56 0,0
30.10.2020 15:00:00 19,9 10,6 23,3 16,2 18,2 15 8 22 12 SSW 1023,5 59 60 0,0
30.10.2020 14:00:00 20,1 10,2 24,2 15,8 18,2 13 7 21 11 SSW 1023,6 60 60 0,0
30.10.2020 13:00:00 20,9 9,5 25,7 15,4 18,2 13 7 21 12 SSW 1023,9 60 60 0,0
30.10.2020 12:00:00 22,1 9,3 26,8 15,0 18,2 10 5 15 8 S 1024,6 60 60 0,0
30.10.2020 11:00:00 20,7 8,7 25,7 14,6 18,2 5 3 16 9 W 1025,1 60 60 0,0
30.10.2020 10:00:00 19,1 9,6 20,9 14,4 18,2 8 4 13 7 NNW 1025,6 60 60 0,0
30.10.2020 09:00:00 15,4 11,2 13,3 14,4 18,2 7 4 10 6 NW 1025,5 60 60 0,0
30.10.2020 08:00:00 12,4 9,6 4,3 14,5 18,2 7 4 16 9 WNW 1025,2 53 20 0,0
30.10.2020 07:00:00 8,9 7,5 4,7 14,7 18,3 4 2 12 6 W 1024,9 60 0 0,0
30.10.2020 06:00:00 9,7 7,8 7,0 14,8 18,3 9 5 19 11 NW 1024,8 60 0 0,0
30.10.2020 05:00:00 10,8 8,7 6,3 14,9 18,2 9 5 13 7 WNW 1024,7 60 0 0,0
30.10.2020 04:00:00 10,7 9,1 6,2 15,1 18,2 9 5 10 5 NW 1024,6 60 0 0,0
30.10.2020 03:00:00 12,0 9,2 6,9 15,2 18,2 6 3 11 6 W 1024,6 60 0 0,0
30.10.2020 02:00:00 12,1 8,9 8,7 15,4 18,2 6 4 15 8 W 1025,0 56 0 0,0
30.10.2020 01:00:00 13,0 9,1 8,4 15,5 18,3 12 6 17 9 W 1025,0 60 0 0,0
30.10.2020 00:00:00 12,5 9,3 8,8 15,7 18,3 4 2 14 8 SSE 1025,3 60 0 0,0
29.10.2020 23:00:00 11,8 8,8 9,6 15,9 18,3 13 7 22 12 N 1025,4 60 0 0,0
29.10.2020 22:00:00 14,0 10,6 9,5 16,1 18,3 4 2 15 8 N 1025,3 59 0 0,0
29.10.2020 21:00:00 15,7 9,1 13,2 16,2 18,3 8 5 18 10 W 1024,8 12 0 0,0
29.10.2020 20:00:00 16,0 9,2 13,8 16,4 18,3 9 5 15 8 W 1024,9 16 0 0,0
29.10.2020 19:00:00 17,8 9,4 15,6 16,5 18,3 11 6 22 12 WNW 1024,6 60 0 0,0
29.10.2020 18:00:00 19,1 9,6 16,2 16,6 18,3 11 6 26 14 W 1024,2 60 16 0,0
29.10.2020 17:00:00 21,0 9,9 20,9 16,6 18,3 19 11 26 14 WNW 1023,7 57 60 0,0
29.10.2020 16:00:00 21,0 10,8 23,2 16,5 18,3 9 5 15 8 SE 1023,8 60 60 0,0
29.10.2020 15:00:00 21,2 9,1 24,0 16,3 18,3 13 7 30 16 E 1023,6 51 60 0,0
29.10.2020 14:00:00 22,1 9,6 25,0 16,0 18,3 11 6 37 20 WNW 1024,0 53 60 0,0
29.10.2020 13:00:00 21,2 9,1 23,5 15,7 18,3 18 10 31 17 W 1024,4 57 56 0,0
29.10.2020 12:00:00 20,4 8,7 22,9 15,3 18,3 18 10 31 17 WNW 1024,8 53 60 0,0
29.10.2020 11:00:00 19,3 9,8 21,2 15,1 18,3 16 9 24 13 WSW 1025,2 60 60 0,0
29.10.2020 10:00:00 18,0 10,1 18,7 14,8 18,3 15 8 26 14 WSW 1025,3 60 60 0,0
29.10.2020 09:00:00 15,9 10,2 13,6 14,8 18,3 11 6 22 12 W 1024,7 40 11 0,0
29.10.2020 08:00:00 14,7 9,3 12,1 14,8 18,3 9 5 21 11 WSW 1024,3 60 0 0,0
29.10.2020 07:00:00 13,4 9,4 12,1 14,9 18,3 13 7 19 11 WSW 1023,7 60 0 0,0
29.10.2020 06:00:00 13,5 9,2 12,5 15,0 18,3 13 7 24 13 WSW 1023,6 59 0 0,0
29.10.2020 05:00:00 14,2 9,2 12,9 15,0 18,3 18 10 28 15 W 1023,4 56 0 0,0
29.10.2020 04:00:00 14,5 9,1 12,8 15,1 18,3 22 12 30 16 W 1023,3 60 0 0,0
29.10.2020 03:00:00 14,2 9,4 12,9 15,2 18,3 19 10 26 14 W 1023,4 60 0 0,0
29.10.2020 02:00:00 14,5 9,7 12,5 15,3 18,3 16 9 25 13 W 1023,4 60 0 0,0
29.10.2020 01:00:00 14,5 9,9 12,6 15,4 18,4 20 11 26 14 W 1023,2 60 0 0,0
29.10.2020 00:00:00 14,5 9,9 12,8 15,5 18,3 16 9 27 15 WSW 1022,9 60 0 0,0
28.10.2020 23:00:00 16,0 10,1 13,2 15,6 18,4 23 12 35 19 WNW 1022,9 60 0 0,0
28.10.2020 22:00:00 15,2 10,2 13,4 15,8 18,4 13 7 26 14 WSW 1022,0 60 0 0,0
28.10.2020 21:00:00 16,6 10,0 14,3 15,9 18,3 10 5 24 13 NW 1021,6 60 0 0,0
28.10.2020 20:00:00 16,0 10,5 14,4 16,0 18,4 8 5 33 18 W 1021,3 60 0 0,0
28.10.2020 19:00:00 17,0 10,8 15,3 16,2 18,4 15 8 24 13 WSW 1020,9 60 0 0,0
28.10.2020 18:00:00 18,1 11,2 16,9 16,2 18,4 18 10 29 16 W 1019,9 60 12 0,0
28.10.2020 17:00:00 19,9 11,6 19,5 16,1 18,4 18 10 29 16 W 1019,2 60 11 0,0
28.10.2020 16:00:00 19,7 12,2 19,3 16,0 18,4 15 8 27 15 SW 1019,1 42 10 0,0
28.10.2020 15:00:00 18,6 13,0 19,5 15,7 18,4 16 9 23 12 SSW 1019,1 57 50 0,0
28.10.2020 14:00:00 17,6 12,1 18,2 15,5 18,4 11 6 18 10 SSW 1019,6 60 10 0,0
28.10.2020 13:00:00 16,9 10,3 19,7 15,2 18,4 8 5 13 7 S 1020,0 45 11 0,0
28.10.2020 12:00:00 16,5 11,0 20,2 14,8 18,4 8 5 13 7 SSE 1020,4 55 43 0,0
28.10.2020 11:00:00 15,5 10,0 15,8 14,6 18,4 5 3 14 8 E 1020,1 42 22 0,0
28.10.2020 10:00:00 13,5 10,1 13,1 14,5 18,4 8 4 13 7 NE 1019,9 48 3 0,0
28.10.2020 09:00:00 12,3 10,2 12,6 14,5 18,4 9 5 17 9 NNE 1019,6 55 8 0,0
28.10.2020 08:00:00 11,2 10,3 8,0 14,6 18,4 8 5 15 8 NE 1018,6 17 19 0,0
28.10.2020 07:00:00 10,6 9,0 8,4 14,6 18,5 7 4 10 5 NNE 1017,7 59 0 0,0
28.10.2020 06:00:00 11,8 9,2 10,4 14,6 18,4 7 4 9 5 NE 1017,5 60 0 0,0
28.10.2020 05:00:00 12,6 9,1 11,8 14,7 18,5 6 4 13 7 NE 1017,1 59 0 0,0
28.10.2020 04:00:00 13,5 8,5 12,1 14,7 18,4 11 6 22 12 WNW 1016,6 58 0 0,0
28.10.2020 03:00:00 13,4 8,5 12,5 14,7 18,5 17 9 22 12 W 1016,6 60 0 0,0
28.10.2020 02:00:00 13,5 9,0 12,6 14,8 18,5 9 5 13 7 WSW 1016,7 60 0 0,0
28.10.2020 01:00:00 13,3 9,0 10,5 14,8 18,5 10 6 16 8 W 1016,7 60 0 0,0
28.10.2020 00:00:00 12,8 8,5 10,5 14,9 18,5 7 4 14 8 WSW 1016,7 60 0 0,0
27.10.2020 23:00:00 13,2 8,5 10,7 15,0 18,5 11 6 14 7 W 1016,7 60 0 0,0
27.10.2020 22:00:00 14,2 8,6 12,7 15,1 18,5 11 6 17 9 W 1016,4 60 0 0,0
27.10.2020 21:00:00 14,3 8,5 13,0 15,1 18,5 8 4 15 8 W 1015,9 60 0 0,0
27.10.2020 20:00:00 14,2 8,2 12,8 15,3 18,5 14 7 20 11 W 1015,7 60 0 0,0
27.10.2020 19:00:00 14,9 8,1 13,4 15,4 18,5 13 7 24 13 W 1015,5 60 0 0,0
27.10.2020 18:00:00 15,5 7,8 14,3 15,5 18,5 17 9 33 18 W 1015,0 60 0 0,0
27.10.2020 17:00:00 16,5 7,4 15,7 15,5 18,5 24 13 37 20 W 1014,7 60 30 0,0
27.10.2020 16:00:00 18,0 7,4 18,9 15,3 18,5 26 14 39 21 W 1014,1 60 56 0,0
27.10.2020 15:00:00 17,1 7,2 18,5 15,2 18,5 18 10 33 18 W 1014,3 60 50 0,0
27.10.2020 14:00:00 17,3 7,6 17,1 15,0 18,6 27 15 40 22 W 1014,5 60 30 0,0
27.10.2020 13:00:00 16,2 6,3 17,7 14,7 18,5 23 12 39 21 W 1015,1 59 34 0,0
27.10.2020 12:00:00 17,2 6,4 18,2 14,4 18,5 24 13 41 22 WNW 1015,7 46 60 0,0
27.10.2020 11:00:00 16,3 6,1 19,1 14,1 18,6 27 14 41 22 WNW 1015,8 40 54 0,0
27.10.2020 10:00:00 15,5 7,8 17,1 13,9 18,5 7 4 20 11 W 1015,7 60 60 0,0
27.10.2020 09:00:00 13,6 7,6 11,3 13,9 18,6 10 5 20 11 W 1015,5 59 57 0,0
27.10.2020 08:00:00 11,3 6,8 7,8 13,9 18,6 9 5 17 9 W 1014,9 60 21 0,0
27.10.2020 07:00:00 10,1 6,1 8,2 14,1 18,6 16 9 24 13 W 1014,4 60 0 0,0
27.10.2020 06:00:00 10,5 6,3 8,8 14,2 18,6 19 11 31 17 W 1014,0 60 0 0,0
27.10.2020 05:00:00 10,7 6,1 8,6 14,3 18,6 23 12 29 16 W 1013,7 60 0 0,0
27.10.2020 04:00:00 10,8 6,2 8,3 14,4 18,6 8 5 29 15 W 1013,6 60 0 0,0
27.10.2020 03:00:00 11,1 6,2 7,5 14,6 18,6 16 9 24 13 W 1013,6 60 0 0,0
27.10.2020 02:00:00 11,3 6,8 9,3 14,7 18,6 13 7 30 16 W 1013,8 60 0 0,0
27.10.2020 01:00:00 11,6 6,5 9,3 14,8 18,6 23 12 32 17 W 1013,9 60 0 0,0
27.10.2020 00:00:00 11,1 6,0 8,8 15,0 18,6 16 8 33 18 W 1014,1 60 0 0,0
26.10.2020 23:00:00 11,8 6,1 9,7 15,2 18,6 22 12 35 19 W 1014,0 60 0 0,0
26.10.2020 22:00:00 11,8 5,9 9,4 15,3 18,6 16 9 34 18 WSW 1013,6 60 0 0,0
26.10.2020 21:00:00 12,6 6,4 10,6 15,5 18,6 27 15 38 21 W 1013,1 60 0 0,0
26.10.2020 20:00:00 13,1 6,0 11,4 15,7 18,6 20 11 45 25 WNW 1012,5 60 0 0,0
26.10.2020 19:00:00 13,2 6,3 12,0 15,9 18,6 24 13 49 26 WNW 1011,8 60 0 0,0
26.10.2020 18:00:00 14,2 6,0 13,1 16,1 18,6 26 14 43 23 WNW 1010,6 60 15 0,0
26.10.2020 17:00:00 16,3 5,6 15,6 16,2 18,6 28 15 48 26 WNW 1009,6 60 54 0,0
26.10.2020 16:00:00 17,0 5,6 18,3 16,1 18,6 30 16 55 30 WNW 1009,1 50 60 0,0
26.10.2020 15:00:00 17,3 5,9 19,6 16,0 18,6 32 18 51 28 W 1008,6 39 60 0,0
26.10.2020 14:00:00 17,6 6,1 20,0 15,9 18,6 33 18 52 28 NW 1008,5 49 60 0,0
26.10.2020 13:00:00 16,5 7,7 17,2 15,6 18,6 21 11 47 25 WNW 1008,8 60 41 0,0
26.10.2020 12:00:00 15,2 8,9 14,5 15,5 18,6 27 14 37 20 W 1009,7 60 16 0,0
26.10.2020 11:00:00 13,7 8,7 14,4 15,4 18,6 19 10 27 15 W 1009,9 57 0 0,0
26.10.2020 10:00:00 12,8 9,6 - - - 9 5 13 7 WSW 1009,9 60 - -
26.10.2020 09:00:00 11,8 9,0 10,7 15,4 18,6 9 5 18 10 WNW 1009,9 43 0 0,0
26.10.2020 08:00:00 11,4 9,3 9,9 15,5 18,6 11 6 23 13 N 1009,2 28 0 0,2
26.10.2020 07:00:00 11,2 8,8 10,0 15,6 18,6 11 6 26 14 N 1008,0 60 0 0,0
26.10.2020 06:00:00 11,5 8,7 10,0 15,7 18,6 17 9 27 14 W 1007,8 60 0 0,0
26.10.2020 05:00:00 11,4 9,3 10,4 15,8 18,6 22 12 29 16 W 1007,3 54 0 0,0
26.10.2020 04:00:00 11,9 9,5 10,5 15,9 18,6 10 6 31 17 WSW 1007,4 60 0 0,8
26.10.2020 03:00:00 12,7 9,0 10,8 16,0 18,6 23 12 57 31 WNW 1006,9 16 0 0,4
26.10.2020 02:00:00 14,1 12,5 12,9 16,1 18,6 24 13 36 19 W 1006,5 27 0 0,0
26.10.2020 01:00:00 13,9 12,8 12,6 16,1 18,7 6 4 16 9 W 1006,0 20 0 0,0
26.10.2020 00:00:00 14,2 13,1 13,4 16,2 18,6 12 7 17 9 NW 1006,4 20 0 0,0

tt = Température de l'air
td = dewpoint
tt 5cm = Température de l'air 5cm
tt -20cm = Température de l'air -20cm
tt -100cm = Température de l'air -100cm
ff = Vitesse du vent
fx = gusts
dd = Direction du vent
ppp = reduced air pressure
vv = visibility
sd = Ensoleillement
rr = Quantités de précipitations

stations d'obs. à proximité